Starlink 4666

operational
NORAD ID: 53789 Int'l Des: 2022-111 Owner: SPXS Country: US Constellation: starlink
LEOCIRCULAR

Über Starlink 4666

Beschreibung wird geladen...

Live-Position

3D-Globus wird geladen...

Nächste Überflüge

Höhenverlauf

Altitude vs Time

uPlot chart will show altitude changes over time

Zweizeiliger Elementsatz

1 53789U 22111S 25298.91472466 .00067974 00000-0 42444-2 0 9997
2 53789 53.2150 158.8688 0001557 94.4101 265.7069 15.08872756173343
Epoch: 25. Okt. 2025 • Age: 14 hours

Aktueller Status

Höhe 555.3 km
Geschwindigkeit 7.58 km/s
Subsatellitenpunkt -44.58°S, 172.29°E
Startdatum 11. Sept. 2022
Alter 3.1 years
Typ internet

Technische Details

Klassifizierung Payload
Masse 305.00 kg
Trockenmasse 290.00 kg
Gesamtmasse 305.00 kg
Länge 0.20 m
Durchmesser 2.80 m
Spannweite 9.00 m
Form Box + pan
Hersteller SPXS
Bus-Typ Starlink
Phasenstatus In Orbit
Besitzer/Staat SPXS/US

Große Konstellationen

Loading constellations...